Location: Garganta de Valdelejo
(40.2829°N, 4.6978°W)
Time: 20:25:50
(UTC+00:00)

Daily predictions for brighter satellites

Satellite Brightness Start Highest point End
(mag) Time Altitude Azimuth Time Altitude Azimuth Time Altitude Azimuth
Cosmos 1400 Rocket 4.0 17:15:42 10° NNW 17:19:28 46° W 17:23:11 10° SSW
Meteor 1-31 Rocket 3.1 17:18:24 10° S 17:22:17 74° W 17:26:11 10° NNW
SeaSat 1 3.4 17:18:33 10° NE 17:22:53 30° ESE 17:27:12 10° S
Cosmos 1939 Rocket 4.2 17:22:25 10° S 17:26:03 42° W 17:29:44 10° NNW
Cosmos 1340 3.4 17:24:02 10° SSE 17:27:18 31° E 17:30:37 10° NNE
SL-4 R/B 3.4 17:25:11 10° W 17:29:07 32° NNW 17:32:50 10° NE
Landsat 4 3.9 17:26:13 10° S 17:29:55 76° WSW 17:33:39 10° NNW
Cosmos 1331 Rocket 4.2 17:28:13 10° S 17:33:18 53° ESE 17:38:28 10° NNE
Cosmos 405 3.1 17:30:37 10° NNW 17:33:54 71° W 17:37:10 10° S
Cosmos 389 Rocket 2.3 17:31:01 10° N 17:34:21 63° E 17:37:41 10° SSE
Cosmos 2237 4.2 17:31:04 10° NNW 17:36:47 68° ENE 17:42:28 10° SSE
OAO 2 Rocket 4.2 17:32:35 10° WSW 17:37:33 45° S 17:42:24 10° ESE
Cosmos 2074 Rocket 4.2 17:34:20 10° S 17:40:37 80° W 17:46:55 10° N
USA 290 2.1 17:38:52 10° NNW 17:42:06 75° ENE 17:45:18 10° SSE
ATLAS 3B R/B 3.0 17:36:51 10° S 17:43:04 47° ESE 17:49:42 10° NE
Cosmos 44 4.2 17:39:37 10° N 17:43:36 27° NE 17:47:43 10° ESE
Cosmos 1315 Rocket 2.8 17:40:01 10° N 17:44:06 77° E 17:48:12 10° SSE
IKONOS-2 4.5 17:40:01 10° NNE 17:44:12 66° ESE 17:48:21 10° S
CZ-2C R/B 3.6 17:40:40 10° N 17:45:42 47° WNW 17:50:37 10° SW
CZ-2D R/B 3.3 17:43:12 10° S 17:46:58 84° W 17:50:46 10° NNW
SL-16 R/B 2.5 17:43:32 10° NNW 17:49:13 76° WSW 17:54:51 10° SSE
SL-08 R/B 3.2 17:47:14 10° NNE 17:51:54 88° ESE 17:56:29 10° SSW
Lacrosse 5 4.1 17:49:40 10° NW 17:52:07 13° NNW 17:54:33 10° NNE
BREEZE-M DEB (TANK) 3.8 17:47:00 10° WNW 17:52:25 24° NNW 17:54:28 14° NE
Cosmos 1833 4.3 17:48:47 10° SSW 17:54:31 68° ESE 18:00:17 10° NNE
DMSP B5D2-2 4.3 17:49:32 10° NNE 17:54:33 46° E 17:59:32 10° S
Cosmos 2219 Rocket 3.0 17:51:57 10° N 17:56:39 27° NE 18:01:19 10° ESE
Okean 3 Rocket 4.5 17:53:59 10° NNE 17:57:39 26° ENE 18:01:17 10° SE
Tiangong -0.3 17:59:03 10° SSW 18:01:28 20° SSE 18:02:49 16° ESE
Cosmos 2154 Rocket 4.2 17:56:48 10° SSW 18:03:02 75° W 18:09:17 10° N
SL-27 R/B 3.3 18:00:46 10° SSE 18:03:28 25° ESE 18:03:55 24° E
SL-24 DEB 4.5 17:59:04 10° SSE 18:03:37 48° E 18:08:12 10° N
CZ-4B R/B 2.5 18:02:34 10° SSE 18:06:08 75° ENE 18:09:54 10° N
Cosmos 1842 Rocket 4.5 18:04:43 10° SE 18:08:25 27° E 18:09:54 22° ENE
Cosmos 1741 Rocket 4.2 18:03:25 10° NNW 18:08:42 80° WSW 18:14:00 10° SSE
Cosmos 1500 3.8 18:06:38 10° NNE 18:10:06 33° ENE 18:13:32 10° SE
Cosmos 2221 2.7 18:11:20 10° SSE 18:15:31 48° E 18:19:13 13° NNE
SL-8 Rocket 4.1 18:09:46 10° SSE 18:15:48 52° E 18:21:49 10° NNE
COSMO-SKYMED 1 2.5 18:12:09 10° NNE 18:16:27 61° E 18:20:44 10° S
SL-08 RB Rocket 4.0 18:12:52 10° S 18:17:22 70° WSW 18:21:51 10° NNW
Cosmos 2333 4.2 18:15:50 10° NNW 18:21:22 58° ENE 18:26:54 10° SE
Cosmos 1602 3.8 18:17:47 10° N 18:21:31 48° E 18:25:13 10° SSE
Cosmos 2322 Rocket 2.9 18:16:42 10° NNW 18:22:12 57° WSW 18:27:40 10° S
Meteor 1-25 Rocket 4.3 18:16:51 10° N 18:22:18 52° ENE 18:27:42 10° SSE
SWARM A 4.4 18:20:03 10° N 18:23:31 56° E 18:26:57 10° SSE
Cosmos 1302 Rocket 3.9 18:18:47 10° S 18:24:00 74° ESE 18:28:24 15° NNE
Cosmos 2366 rocket 4.1 18:19:57 10° SSE 18:25:57 52° E 18:32:04 10° NNE
SL-24 R/B 4.5 18:23:54 10° NNE 18:28:03 87° W 18:32:27 10° SSW
NOSS 3-1 (C) 3.7 18:24:21 10° S 18:28:51 35° ESE 18:30:01 31° E
ISS -1.5 18:27:22 10° NNW 18:28:40 14° N 18:28:40 14° N
Cosmos 1339 Rocket 4.4 18:23:10 10° N 18:29:19 75° E 18:35:33 10° SSE
Cosmos 962 Rocket 4.5 18:24:44 10° S 18:30:53 85° W 18:37:09 10° N
Cosmos 1782 3.0 18:28:19 10° SSE 18:31:59 43° E 18:31:59 43° E
BlueWalker 3 4.2 18:32:07 10° NW 18:34:08 14° N 18:34:58 13° N
Cosmos 2218 Rocket 4.0 18:27:59 10° S 18:34:12 61° E 18:40:31 10° NNE
MINOTAUR 4 R/B 3.9 18:34:26 57° ENE 18:34:50 64° ESE 18:38:17 10° S
CZ-4C R/B 2.4 18:31:05 10° SW 18:35:35 55° NW 18:39:28 18° NNE
NOSS 2-3 (D) 3.2 18:35:22 10° SSW 18:39:08 63° ESE 18:39:39 56° E
NOSS 2-3 (C) 3.2 18:35:35 10° SSW 18:39:22 69° ESE 18:40:03 55° ENE
Cosmos 2333 Rocket 2.1 18:33:57 10° NNW 18:39:38 84° ENE 18:45:18 10° SSE
Lacrosse 5 rocket 1.8 18:39:29 10° NW 18:43:58 69° SW 18:46:56 21° SSE
SKYMED 3 4.5 18:43:08 20° N 18:46:01 81° WNW 18:50:14 10° SSW
Cosmos 2322 3.7 18:40:56 10° NNW 18:46:35 55° ENE 18:49:13 30° SE
PAYLOAD B 4.1 18:43:00 10° SSE 18:48:32 73° ENE 18:54:08 10° N
Cosmos 1766 Rocket 4.2 18:47:18 10° NNW 18:51:42 57° W 18:56:04 10° S
Cosmos 1812 2.9 18:50:03 10° S 18:53:07 57° S 18:53:07 57° S
Meteor 1-26 Rocket 4.2 18:48:31 10° S 18:54:05 65° E 18:57:02 29° NNE
Cosmos 2360 Rocket 3.3 18:51:33 10° NW 18:56:53 44° WSW 19:02:12 10° S
USA 267 3.4 18:58:24 44° E 19:00:05 55° SE 19:06:28 10° SSW
SeaSat 1 3.8 18:56:22 12° N 19:00:21 35° NW 19:04:48 10° WSW
COSMOS 2428 2.7 18:56:51 10° NNW 19:02:13 55° NE 19:02:13 55° NE
SL-4 R/B 4.3 19:06:49 10° NW 19:08:45 16° NNW 19:08:45 16° NNW
Timation 1 Rocket 4.2 19:03:32 10° SSW 19:09:30 90° ESE 19:11:16 49° NNE
Cosmos 968 Rocket 4.0 19:05:54 10° NNW 19:10:57 58° WSW 19:16:00 10° S
Cosmos 2344 4.5 19:03:06 10° NNW 19:11:29 44° NE 19:13:26 41° ENE
Cosmos 2297 Rocket 4.0 19:07:26 10° SSE 19:08:55 17° SSE 19:08:55 17° SSE
Iridium 4 Rocket 4.3 19:09:19 10° SSW 19:14:46 53° W 19:19:49 10° N
CZ-4B R/B 3.1 19:13:13 10° SSE 19:18:51 88° WSW 19:24:26 10° NNW
OAO 2 Rocket 4.2 19:17:06 10° W 19:21:54 41° SSW 19:21:54 41° SSW
MOS 1-B 4.4 19:17:03 10° S 19:22:49 76° WSW 19:28:36 10° NNW
BREEZE-M DEB (TANK) 3.7 19:04:31 10° SW 19:23:57 77° SSE 19:24:56 65° E
SL-08 R/B 4.4 19:25:11 10° S 19:30:57 74° SSE 19:30:57 74° SSE
USA 234 4.2 19:34:29 31° N 19:34:29 31° N 19:39:06 10° NW
ATLAS 3B R/B 3.8 19:27:42 10° WSW 19:33:53 38° NW 19:37:16 25° N
Lacrosse 5 4.4 19:34:45 10° NNW 19:35:02 11° NNW 19:35:02 11° NNW
Tiangong 1.4 19:34:56 10° WSW 19:35:08 11° WSW 19:35:08 11° WSW
Cosmos 2219 Rocket 3.2 19:35:29 10° NW 19:40:45 44° WSW 19:44:32 18° S
Cosmos 2237 Rocket 4.4 19:43:24 10° NNW 19:44:10 14° N 19:44:10 14° N
